Weather History for KAEJ - May, 2013

Change the Weather History Date:

Tuesday, May 14, 2013

  Actual Average (KLXV) Record (KLXV)
Temperature  
Mean Temperature 56 °F -  
Max Temperature 72 °F 54 °F - ()
Min Temperature 39 °F 27 °F - ()
Degree Days  
Heating Degree Days 10 25  
Month to date heating degree days 376  
Since 1 July heating degree days 10377  
Cooling Degree Days 0 0  
Month to date cooling degree days 0  
Year to date cooling degree days 0  
Growing Degree Days 6 (Base 50)    
Moisture  
Dew Point 33 °F    
Average Humidity 47    
Maximum Humidity 80    
Minimum Humidity 16    
Precipitation  
Precipitation 0.00 in 0.02 in - ()
Month to date precipitation 0.39  
Year to date precipitation 3.72  
Sea Level Pressure  
Sea Level Pressure 30.25 in    
Wind  
Wind Speed 7 mph (NW)    
Max Wind Speed 22 mph    
Max Gust Speed 31 mph    
Visibility 10 miles    
Events      
T = Trace of Precipitation, MM = Missing Value Source: NWS Daily Summary

Daily Weather History Graph

Daily Weather History Graph

Search for Another Location

Airport or City:

Trip Planner

Search our weather history database for the weather conditions in past years. The results will help you decide how hot, cold, wet, or windy it might be!

Date:

Astronomy

May. 14, 2013 Rise Set
Actual Time 5:52 AM MDT 8:09 PM MDT
Civil Twilight 5:22 AM MDT 8:39 PM MDT
Nautical Twilight 4:46 AM MDT 9:16 PM MDT
Astronomical Twilight 4:05 AM MDT 9:56 PM MDT
Moon 9:34 AM MDT (5/14) 11:58 PM MDT (5/14)
Length of Visible Light 15h 16m
Length of Day
14h 16m
Waxing Crescent, 19% of the Moon is Illuminated
May 14
Waxing Crescent
May 17
First Quarter
May 24
Full
May 31
Last Quarter
Jun 8
New

Hourly Weather History & Observations

Time (MDT) Temp. Windchill Dew Point Humidity Pressure Visibility Wind Dir Wind Speed Gust Speed Precip Events Conditions
12:15 AM 47.8 °F - 35.8 °F 63% 30.34 in 10.0 mi NNW 6.9 mph - N/A   Clear
12:35 AM 46.4 °F - 35.6 °F 66% 30.34 in 10.0 mi Calm Calm - N/A   Clear
12:55 AM 47.7 °F - 35.2 °F 62% 30.33 in 10.0 mi Calm Calm - N/A   Clear
1:15 AM 45.5 °F 44.2 °F 35.4 °F 68% 30.33 in 10.0 mi West 3.5 mph - N/A   Clear
1:35 AM 45.7 °F 41.0 °F 35.6 °F 68% 30.33 in 10.0 mi WNW 9.2 mph - N/A   Clear
1:55 AM 43.0 °F 40.3 °F 35.2 °F 74% 30.32 in 10.0 mi WNW 4.6 mph - N/A   Clear
2:15 AM 41.5 °F 38.6 °F 35.2 °F 78% 30.31 in 10.0 mi WSW 4.6 mph - N/A   Clear
2:35 AM 43.9 °F 40.5 °F 34.9 °F 71% 30.31 in 10.0 mi NW 5.8 mph - N/A   Clear
2:55 AM 43.7 °F 42.1 °F 34.5 °F 70% 30.31 in 10.0 mi NNW 3.5 mph - N/A   Clear
3:15 AM 44.6 °F - 33.8 °F 66% 30.30 in 10.0 mi Calm Calm - N/A   Clear
3:35 AM 41.7 °F - 34.5 °F 76% 30.30 in 10.0 mi Calm Calm - N/A   Clear
3:55 AM 41.4 °F 37.6 °F 34.5 °F 77% 30.30 in 10.0 mi West 5.8 mph - N/A   Clear
4:15 AM 41.9 °F 37.5 °F 34.2 °F 74% 30.30 in 10.0 mi NW 6.9 mph - N/A   Clear
4:35 AM 40.6 °F 36.0 °F 34.0 °F 77% 30.30 in 10.0 mi West 6.9 mph - N/A   Clear
4:55 AM 42.1 °F 40.2 °F 33.8 °F 72% 30.30 in 10.0 mi NNE 3.5 mph - N/A   Clear
5:15 AM 42.3 °F - 33.1 °F 70% 30.30 in 10.0 mi Calm Calm - N/A   Clear
5:35 AM 39.0 °F 34.8 °F 33.3 °F 80% 30.29 in 10.0 mi West 5.8 mph - N/A   Clear
5:55 AM 42.8 °F 37.0 °F 32.9 °F 68% 30.30 in 10.0 mi NW 10.4 mph - N/A   Clear
6:15 AM 43.3 °F 39.2 °F 32.7 °F 66% 30.30 in 10.0 mi NW 6.9 mph - N/A   Clear
6:35 AM 44.4 °F 39.0 °F 32.7 °F 64% 30.30 in 10.0 mi NW 10.4 mph 16.1 mph N/A   Clear
6:55 AM 46.4 °F 40.7 °F 32.9 °F 59% 30.30 in 10.0 mi NW 12.7 mph 16.1 mph N/A   Clear
7:15 AM 48.2 °F - 32.9 °F 55% 30.30 in 10.0 mi NW 8.1 mph - N/A   Clear
7:35 AM 49.8 °F - 33.4 °F 53% 30.30 in 10.0 mi NW 8.1 mph - N/A   Clear
7:55 AM 52.3 °F - 32.7 °F 47% 30.30 in 10.0 mi NW 5.8 mph 9.2 mph N/A   Clear
8:15 AM 54.5 °F - 32.4 °F 43% 30.30 in 10.0 mi NNW 12.7 mph - N/A   Clear
8:35 AM 56.7 °F - 32.7 °F 40% 30.28 in 10.0 mi NW 10.4 mph - N/A   Clear
8:55 AM 58.5 °F - 33.3 °F 39% 30.28 in 10.0 mi NW 8.1 mph - N/A   Clear
9:15 AM 60.1 °F - 32.0 °F 35% 30.27 in 10.0 mi NW 4.6 mph - N/A   Clear
9:35 AM 63.3 °F - 32.7 °F 32% 30.26 in 10.0 mi SSW 4.6 mph - N/A   Clear
9:55 AM 64.0 °F - 31.6 °F 30% 30.26 in 10.0 mi Calm Calm - N/A   Clear
10:15 AM 68.2 °F - 31.3 °F 25% 30.25 in 10.0 mi SE 6.9 mph - N/A   Clear
10:35 AM 68.9 °F - 27.9 °F 22% 30.25 in 10.0 mi South 3.5 mph - N/A   Clear
10:55 AM 70.5 °F - 32.0 °F 24% 30.24 in 10.0 mi ESE 10.4 mph - N/A   Scattered Clouds
11:15 AM 71.6 °F - 30.0 °F 21% 30.23 in 10.0 mi ESE 4.6 mph - N/A   Clear
11:35 AM 71.8 °F - 27.1 °F 19% 30.22 in 10.0 mi SSW 12.7 mph - N/A   Scattered Clouds
11:55 AM 72.5 °F - 27.0 °F 18% 30.21 in 10.0 mi NW 16.1 mph 20.7 mph N/A   Mostly Cloudy
12:15 PM 70.2 °F - 26.2 °F 19% 30.21 in 10.0 mi WNW 10.4 mph 19.6 mph N/A   Mostly Cloudy
12:35 PM 70.0 °F - 23.2 °F 17% 30.20 in 10.0 mi NW 13.8 mph 28.8 mph N/A   Mostly Cloudy
12:55 PM 71.2 °F - 22.8 °F 16% 30.20 in 10.0 mi NW 16.1 mph 28.8 mph N/A   Scattered Clouds
1:15 PM 70.7 °F - 26.4 °F 19% 30.20 in 10.0 mi NNW 20.7 mph 27.6 mph N/A   Mostly Cloudy
1:35 PM 71.4 °F - 26.1 °F 18% 30.19 in 10.0 mi NW 13.8 mph 18.4 mph N/A   Scattered Clouds
1:55 PM 70.9 °F - 24.4 °F 18% 30.18 in 10.0 mi NNW 17.3 mph 23.0 mph N/A   Scattered Clouds
2:15 PM 70.7 °F - 27.3 °F 20% 30.18 in 10.0 mi North 20.7 mph 26.5 mph N/A   Overcast
2:35 PM 70.2 °F - 28.2 °F 21% 30.19 in 10.0 mi North 21.9 mph 27.6 mph N/A   Scattered Clouds
2:55 PM 67.3 °F - 30.7 °F 26% 30.20 in 10.0 mi NE 18.4 mph 28.8 mph N/A   Mostly Cloudy
3:15 PM 65.3 °F - 31.6 °F 28% 30.21 in 10.0 mi NE 21.9 mph 29.9 mph N/A   Overcast
3:35 PM 62.8 °F - 33.6 °F 34% 30.22 in 10.0 mi NE 21.9 mph 31.1 mph N/A   Mostly Cloudy
3:55 PM 61.3 °F - 35.1 °F 37% 30.23 in 10.0 mi ENE 16.1 mph 24.2 mph N/A   Overcast
4:15 PM 61.0 °F - 35.1 °F 38% 30.23 in 10.0 mi ENE 10.4 mph - N/A   Overcast
4:35 PM 62.1 °F - 35.1 °F 37% 30.24 in 10.0 mi ESE 10.4 mph - N/A   Overcast
4:55 PM 60.8 °F - 36.1 °F 40% 30.24 in 10.0 mi East 9.2 mph - N/A   Mostly Cloudy
5:15 PM 60.3 °F - 34.5 °F 38% 30.23 in 10.0 mi Calm Calm - N/A   Mostly Cloudy
5:35 PM 60.8 °F - 37.8 °F 42% 30.23 in 10.0 mi South 6.9 mph - N/A   Scattered Clouds
5:55 PM 60.4 °F - 37.0 °F 42% 30.23 in 10.0 mi SE 9.2 mph - N/A   Mostly Cloudy
6:15 PM 59.9 °F - 36.0 °F 41% 30.23 in 10.0 mi ESE 6.9 mph - N/A   Overcast
6:35 PM 59.2 °F - 37.2 °F 44% 30.22 in 10.0 mi ESE 6.9 mph - N/A   Mostly Cloudy
6:55 PM 58.3 °F - 37.6 °F 46% 30.22 in 10.0 mi East 4.6 mph - N/A   Mostly Cloudy
7:15 PM 58.1 °F - 37.4 °F 46% 30.23 in 10.0 mi Calm Calm - N/A   Scattered Clouds
7:35 PM 57.6 °F - 37.8 °F 48% 30.23 in 10.0 mi NW 9.2 mph - N/A   Scattered Clouds
7:55 PM 57.0 °F - 37.6 °F 48% 30.23 in 10.0 mi WNW 10.4 mph - N/A   Overcast
8:15 PM 56.5 °F - 37.8 °F 50% 30.23 in 10.0 mi West 8.1 mph - N/A   Overcast
8:55 PM 55.4 °F - 37.9 °F 52% 30.24 in 10.0 mi WNW 9.2 mph - N/A   Clear
9:15 PM 55.6 °F - 38.3 °F 52% 30.23 in 10.0 mi NW 8.1 mph - N/A   Scattered Clouds
9:35 PM 54.9 °F - 37.9 °F 53% 30.22 in 10.0 mi WNW 8.1 mph - N/A   Overcast
10:15 PM 54.5 °F - 36.7 °F 51% 30.22 in 10.0 mi NNW 10.4 mph - N/A   Clear
10:35 PM 54.5 °F - 36.7 °F 51% 30.21 in 10.0 mi NW 3.5 mph - N/A   Scattered Clouds
10:55 PM 54.7 °F - 36.9 °F 51% 30.21 in 10.0 mi WNW 9.2 mph - N/A   Overcast
11:15 PM 53.6 °F - 37.8 °F 55% 30.21 in 10.0 mi NW 8.1 mph - N/A   Mostly Cloudy
11:35 PM 51.4 °F - 37.9 °F 60% 30.22 in 10.0 mi WNW 4.6 mph - N/A   Scattered Clouds
11:55 PM 48.7 °F - 38.3 °F 67% 30.22 in 10.0 mi West 5.8 mph - N/A   Scattered Clouds